User: anonymous   Login
Location: Carrizo Plain National Monument
(35.0903°N, 119.7316°W)
Time: 11:30:50
(UTC-07:00)
Language:

BEESAT - Orbit

View from above orbital plane
View from above orbital plane
View from above satellite
View from above satellite

Ground track
Ground track

The orbit data is extracted from the following two-line orbital elements,

1 35933U 09051C   20100.77438825 +.00000094 +00000-0 +32269-4 0  9994
2 35933 098.6089 282.7120 0005676 003.2643 356.8590 14.56453455559905
Epoch (UTC): 09 April 2020 18:35:07
Eccentricity: 0.0005676
inclination: 98.6089°
perigee height: 700 km
apogee height: 708 km
right ascension of ascending node: 282.7120°
argument of perigee: 3.2643°
revolutions per day: 14.56453455
mean anomaly at epoch: 356.8590°
orbit number at epoch: 55990

The dashed part of the orbit path shows where the satellite is in the earth's shadow,  

DLR